NOAA 7 DEB

基本信息
目录编号:
12560
目录名称:
NOAA 7 DEB
国际标识:
1981-059C
轨道中心:
EARTH
物体状态:
在轨
发射日期:
1981-06-23 UTC
轨道信息
数据来源: 国际轨道数据
星历时间: 2026-09-14T09:05:38+0800
半长轴: 7052.401km
偏心率: 0.0002776
轨道倾角: 98.958°
近地点辐角: 75.883°
升交点赤经: 34.957°
平近点角: 336.722°
近地点: 672.306km
远地点: 676.222km
周期: 98.235分钟
每日圈数: 14.658763
详细信息
发射场:
AFWTR
轨道高度:
LEO
数据来源:
AOE Integration Group
参考系:
TEME
时间系统:
UTC
历元类型:
SGP4
2D轨道图
3D轨道图
轨道高度分析图
轨道倾角分析图
轨道综合分析图
查看轨道综合分析图